| time (UTC) | temp F | wind direction | speed knots | gust knots | rain 1hr in | rain 24hr in | rain mn in | humidity % | barometer mb |
| 20260506104425 | 50 | 346 | 4.3 | 6.1 | 0.00 | 0.00 | 0.00 | 82 | 1015.1 |
| 20260506103923 | 50 | 353 | 3.5 | 5.2 | 0.00 | 0.00 | 0.00 | 82 | 1015.3 |
| 20260506103420 | 50 | 13 | 3.5 | 6.1 | 0.00 | 0.00 | 0.00 | 82 | 1015.0 |
| 20260506102917 | 50 | 215 | 2.6 | 3.5 | 0.00 | 0.00 | 0.00 | 82 | 1015.0 |
| 20260506102415 | 50 | 333 | 2.6 | 3.5 | 0.00 | 0.00 | 0.00 | 82 | 1015.1 |
| 20260506101912 | 50 | 334 | 4.3 | 6.1 | 0.00 | 0.00 | 0.00 | 82 | 1015.1 |
| 20260506101408 | 50 | 344 | 3.5 | 6.1 | 0.00 | 0.00 | 0.00 | 83 | 1014.8 |
| 20260506100906 | 50 | 322 | 2.6 | 3.5 | 0.00 | 0.00 | 0.00 | 82 | 1014.8 |
| 20260506100404 | 50 | 266 | 2.6 | 3.5 | 0.00 | 0.00 | 0.00 | 82 | 1014.6 |
| 20260506095902 | 50 | 329 | 1.7 | 1.7 | 0.00 | 0.00 | 0.00 | 82 | 1014.6 |
| 20260506095400 | 50 | 324 | 2.6 | 3.5 | 0.00 | 0.00 | 0.00 | 81 | 1014.8 |
| 20260506094856 | 50 | 8 | 3.5 | 5.2 | 0.00 | 0.00 | 0.00 | 81 | 1014.8 |
| 20260506094355 | 50 | 2 | 4.3 | 6.1 | 0.00 | 0.00 | 0.00 | 81 | 1014.4 |
| 20260506093852 | 50 | 10 | 5.2 | 7.0 | 0.00 | 0.00 | 0.00 | 81 | 1014.4 |
| 20260506093350 | 51 | 2 | 5.2 | 7.0 | 0.00 | 0.00 | 0.00 | 80 | 1014.6 |
| 20260506092847 | 51 | 2 | 1.7 | 5.2 | 0.00 | 0.00 | 0.00 | 80 | 1014.4 |
| 20260506092345 | 51 | 86 | 2.6 | 2.6 | 0.00 | 0.00 | 0.00 | 79 | 1014.1 |
| 20260506091841 | 51 | 336 | 4.3 | 6.1 | 0.00 | 0.00 | 0.00 | 79 | 1013.8 |
| 20260506091339 | 51 | 37 | 2.6 | 2.6 | 0.00 | 0.00 | 0.00 | 79 | 1014.0 |
| 20260506090836 | 51 | 337 | 1.7 | 2.6 | 0.00 | 0.00 | 0.00 | 79 | 1013.9 |
| 20260506090334 | 51 | 328 | 3.5 | 5.2 | 0.00 | 0.00 | 0.00 | 79 | 1013.8 |
| 20260506085830 | 51 | 356 | 1.7 | 1.7 | 0.00 | 0.00 | 0.00 | 79 | 1013.7 |
| 20260506085326 | 51 | 352 | 1.7 | 2.6 | 0.00 | 0.00 | 0.00 | 79 | 1013.8 |
| 20260506084823 | 51 | 255 | 0.9 | 1.7 | 0.00 | 0.00 | 0.00 | 79 | 1013.7 |
| 20260506084320 | 52 | 331 | 1.7 | 2.6 | 0.00 | 0.00 | 0.00 | 79 | 1013.7 |
| 20260506083817 | 52 | 25 | 1.7 | 3.5 | 0.00 | 0.00 | 0.00 | 78 | 1013.5 |
| 20260506083314 | 52 | 190 | 1.7 | 1.7 | 0.00 | 0.00 | 0.00 | 78 | 1013.4 |
| 20260506082812 | 52 | 356 | 1.7 | 1.7 | 0.00 | 0.00 | 0.00 | 78 | 1013.4 |
| 20260506082308 | 52 | 295 | 1.7 | 2.6 | 0.00 | 0.00 | 0.00 | 78 | 1013.3 |
| 20260506081805 | 52 | 348 | 1.7 | 1.7 | 0.00 | 0.00 | 0.00 | 77 | 1013.6 |
| 20260506081302 | 52 | 259 | 3.5 | 3.5 | 0.00 | 0.00 | 0.00 | 77 | 1013.4 |
| 20260506080800 | 52 | 326 | 1.7 | 2.6 | 0.00 | 0.00 | 0.00 | 77 | 1013.2 |
| 20260506080256 | 52 | 55 | 1.7 | 1.7 | 0.00 | 0.00 | 0.00 | 78 | 1013.5 |
| 20260506073240 | 52 | 306 | 2.6 | 3.5 | 0.00 | 0.00 | 0.00 | 78 | 1013.4 |
| 20260506072737 | 52 | 331 | 3.5 | 3.5 | 0.00 | 0.00 | 0.00 | 78 | 1013.4 |
| 20260506072235 | 53 | 287 | 1.7 | 1.7 | 0.00 | 0.00 | 0.00 | 77 | 1013.2 |
| 20260506071732 | 53 | 29 | 1.7 | 2.6 | 0.00 | 0.00 | 0.00 | 77 | 1013.1 |
| 20260506071230 | 52 | 7 | 0.9 | 0.9 | 0.00 | 0.00 | 0.00 | 77 | 1013.4 |
| 20260506070727 | 52 | 0 | 2.6 | 3.5 | 0.00 | 0.00 | 0.00 | 77 | 1013.0 |
| 20260506070224 | 53 | 351 | 1.7 | 1.7 | 0.00 | 0.00 | 0.00 | 78 | 1013.2 |
| 20260506062200 | 53 | 14 | 2.6 | 5.2 | 0.00 | 0.00 | 0.00 | 78 | 1012.5 |
| 20260506061656 | 53 | 327 | 0.9 | 1.7 | 0.00 | 0.00 | 0.00 | 78 | 1012.7 |
| 20260506061154 | 53 | 46 | 3.5 | 5.2 | 0.00 | 0.00 | 0.00 | 78 | 1013.0 |
| 20260506060653 | 53 | 311 | 3.5 | 3.5 | 0.00 | 0.00 | 0.00 | 78 | 1012.9 |
| 20260506060149 | 53 | 79 | 1.7 | 2.6 | 0.00 | 0.00 | 0.00 | 78 | 1012.9 |
| 20260506051121 | 54 | 4 | 2.6 | 3.5 | 0.00 | 0.00 | 0.00 | 77 | 1012.8 |
| 20260506050619 | 54 | 37 | 2.6 | 5.2 | 0.00 | 0.00 | 0.00 | 77 | 1012.9 |
| 20260506050116 | 54 | 48 | 2.6 | 3.5 | 0.00 | 0.00 | 0.00 | 77 | 1013.0 |
| 20260506045109 | 54 | 323 | 3.5 | 3.5 | 0.00 | 0.00 | 0.00 | 77 | 1013.0 |
| 20260506044607 | 54 | 330 | 3.5 | 3.5 | 0.00 | 0.00 | 0.00 | 77 | 1012.9 |
| 20260506044104 | 54 | 340 | 3.5 | 6.1 | 0.00 | 0.00 | 0.00 | 77 | 1013.1 |
| 20260506043601 | 55 | 303 | 2.6 | 6.1 | 0.00 | 0.00 | 0.00 | 77 | 1012.9 |
| 20260506043059 | 54 | 2 | 2.6 | 3.5 | 0.00 | 0.00 | 0.00 | 77 | 1013.0 |
| 20260506042558 | 55 | 39 | 3.5 | 6.1 | 0.00 | 0.00 | 0.00 | 77 | 1013.2 |
| 20260506042056 | 55 | 17 | 2.6 | 3.5 | 0.00 | 0.00 | 0.00 | 78 | 1013.1 |
| 20260506041554 | 55 | 356 | 2.6 | 2.6 | 0.00 | 0.00 | 0.00 | 78 | 1013.2 |
| 20260506041050 | 55 | 303 | 2.6 | 2.6 | 0.00 | 0.00 | 0.00 | 78 | 1013.0 |
| 20260506040549 | 55 | 15 | 2.6 | 2.6 | 0.00 | 0.00 | 0.00 | 78 | 1013.2 |
| 20260506040044 | 55 | 46 | 2.6 | 3.5 | 0.00 | 0.00 | 0.00 | 78 | 1012.9 |
| 20260506035542 | 55 | 12 | 3.5 | 6.1 | 0.00 | 0.00 | 0.00 | 78 | 1012.8 |
| 20260506035038 | 55 | 36 | 1.7 | 2.6 | 0.00 | 0.00 | 0.00 | 78 | 1012.8 |
| 20260506034536 | 55 | 21 | 1.7 | 2.6 | 0.00 | 0.00 | 0.00 | 78 | 1012.9 |
| 20260506034032 | 55 | 333 | 3.5 | 3.5 | 0.00 | 0.00 | 0.00 | 78 | 1013.1 |
| 20260506033530 | 55 | 20 | 2.6 | 3.5 | 0.00 | 0.00 | 0.00 | 78 | 1013.0 |
| 20260506033027 | 55 | 99 | 1.7 | 1.7 | 0.00 | 0.00 | 0.00 | 79 | 1013.0 |
| 20260506032524 | 55 | 341 | 1.7 | 1.7 | 0.00 | 0.00 | 0.00 | 79 | 1013.1 |
| 20260506032020 | 55 | 352 | 4.3 | 5.2 | 0.00 | 0.00 | 0.00 | 78 | 1013.1 |
| 20260506031518 | 55 | 321 | 1.7 | 1.7 | 0.00 | 0.00 | 0.00 | 79 | 1012.9 |
| 20260506031015 | 55 | 327 | 0.9 | 1.7 | 0.00 | 0.00 | 0.00 | 79 | 1012.9 |
| 20260506030513 | 55 | 341 | 2.6 | 3.5 | 0.00 | 0.00 | 0.00 | 79 | 1012.6 |
| 20260506030010 | 56 | 331 | 3.5 | 3.5 | 0.00 | 0.00 | 0.00 | 79 | 1012.5 |
| 20260506025507 | 56 | 352 | 2.6 | 3.5 | 0.00 | 0.00 | 0.00 | 79 | 1012.4 |
| 20260506025003 | 56 | 21 | 1.7 | 1.7 | 0.00 | 0.00 | 0.00 | 80 | 1012.3 |
| 20260506024500 | 56 | 343 | 4.3 | 6.1 | 0.00 | 0.00 | 0.00 | 80 | 1012.3 |
| 20260506023956 | 56 | 119 | 1.7 | 2.6 | 0.00 | 0.00 | 0.00 | 80 | 1012.3 |
| 20260506023453 | 56 | 354 | 1.7 | 1.7 | 0.00 | 0.00 | 0.00 | 80 | 1011.6 |
| 20260506022949 | 56 | 25 | 1.7 | 1.7 | 0.00 | 0.00 | 0.00 | 80 | 1011.3 |
| 20260506022447 | 57 | 106 | 0.9 | 1.7 | 0.00 | 0.00 | 0.00 | 80 | 1011.4 |
| 20260506021945 | 57 | 347 | 1.7 | 2.6 | 0.00 | 0.00 | 0.00 | 80 | 1011.1 |
| 20260506021442 | 57 | 322 | 2.6 | 3.5 | 0.00 | 0.00 | 0.00 | 80 | 1010.9 |
| 20260506020939 | 57 | 52 | 4.3 | 6.1 | 0.00 | 0.00 | 0.00 | 80 | 1011.0 |
| 20260506020437 | 57 | 173 | 1.7 | 2.6 | 0.00 | 0.00 | 0.00 | 80 | 1010.2 |
| 20260506015934 | 57 | 306 | 5.2 | 6.1 | 0.00 | 0.00 | 0.00 | 80 | 1010.2 |
| 20260506015431 | 58 | 102 | 3.5 | 5.2 | 0.00 | 0.00 | 0.00 | 80 | 1010.2 |
| 20260506014928 | 58 | 26 | 4.3 | 5.2 | 0.00 | 0.00 | 0.00 | 80 | 1010.2 |
| 20260506014425 | 58 | 5 | 3.5 | 3.5 | 0.00 | 0.00 | 0.00 | 80 | 1010.0 |
| 20260506013921 | 58 | 352 | 2.6 | 3.5 | 0.00 | 0.00 | 0.00 | 80 | 1010.2 |
| 20260506013420 | 59 | 99 | 3.5 | 6.1 | 0.00 | 0.00 | 0.00 | 79 | 1009.9 |
| 20260506012916 | 59 | 202 | 2.6 | 3.5 | 0.00 | 0.00 | 0.00 | 79 | 1010.0 |
| 20260506012412 | 60 | 351 | 3.5 | 3.5 | 0.00 | 0.00 | 0.00 | 79 | 1009.6 |
| 20260506011909 | 60 | 276 | 2.6 | 3.5 | 0.00 | 0.00 | 0.00 | 78 | 1009.8 |
| 20260506011406 | 60 | 44 | 3.5 | 6.1 | 0.00 | 0.00 | 0.00 | 78 | 1009.7 |
| 20260506010903 | 60 | 285 | 4.3 | 6.1 | 0.00 | 0.00 | 0.00 | 78 | 1009.4 |
| 20260506010402 | 61 | 289 | 3.5 | 7.0 | 0.00 | 0.00 | 0.00 | 77 | 1009.5 |
| 20260506005858 | 61 | 351 | 3.5 | 5.2 | 0.00 | 0.00 | 0.00 | 77 | 1009.4 |
| 20260506005355 | 61 | 303 | 1.7 | 1.7 | 0.00 | 0.00 | 0.00 | 77 | 1009.2 |
| 20260506004851 | 62 | 311 | 3.5 | 3.5 | 0.00 | 0.00 | 0.00 | 77 | 1009.2 |
| 20260506004349 | 62 | 316 | 1.7 | 2.6 | 0.00 | 0.00 | 0.00 | 77 | 1009.6 |
| 20260506003845 | 62 | 75 | 1.7 | 2.6 | 0.00 | 0.00 | 0.00 | 77 | 1009.5 |
| 20260506003341 | 62 | 90 | 2.6 | 3.5 | 0.00 | 0.00 | 0.00 | 76 | 1009.4 |
| 20260506002838 | 62 | 282 | 4.3 | 5.2 | 0.00 | 0.00 | 0.00 | 76 | 1009.2 |
| 20260506002334 | 63 | 268 | 2.6 | 2.6 | 0.00 | 0.00 | 0.00 | 75 | 1008.9 |
| 20260506001829 | 63 | 95 | 2.6 | 3.5 | 0.00 | 0.00 | 0.00 | 76 | 1009.3 |
| 20260506001327 | 63 | 354 | 2.6 | 2.6 | 0.00 | 0.00 | 0.00 | 75 | 1009.4 |
| 20260506000824 | 64 | 310 | 2.6 | 5.2 | 0.00 | 0.00 | 0.00 | 75 | 1009.3 |
| 20260506000323 | 64 | 332 | 5.2 | 6.1 | 0.00 | 0.00 | 0.00 | 74 | 1009.0 |
| 20260505235818 | 64 | 309 | 1.7 | 3.5 | 0.00 | 0.00 | 0.00 | 74 | 1009.1 |
| 20260505235316 | 64 | 32 | 3.5 | 3.5 | 0.00 | 0.00 | 0.00 | 74 | 1008.9 |
| 20260505234813 | 64 | 0 | 3.5 | 3.5 | 0.00 | 0.00 | 0.00 | 74 | 1008.5 |
| 20260505234310 | 65 | 20 | 3.5 | 5.2 | 0.00 | 0.00 | 0.00 | 73 | 1008.7 |
| 20260505233807 | 65 | 325 | 4.3 | 5.2 | 0.00 | 0.00 | 0.00 | 74 | 1008.8 |
| 20260505233305 | 65 | 329 | 1.7 | 1.7 | 0.00 | 0.00 | 0.00 | 74 | 1008.9 |
| 20260505232802 | 65 | 279 | 2.6 | 3.5 | 0.00 | 0.00 | 0.00 | 73 | 1009.2 |
| 20260505232259 | 65 | 265 | 1.7 | 2.6 | 0.00 | 0.00 | 0.00 | 74 | 1009.0 |
| 20260505231755 | 66 | 289 | 6.1 | 7.8 | 0.00 | 0.00 | 0.00 | 74 | 1008.7 |
| 20260505231254 | 66 | 311 | 3.5 | 5.2 | 0.00 | 0.00 | 0.00 | 73 | 1008.8 |
| 20260505230752 | 66 | 347 | 2.6 | 5.2 | 0.00 | 0.00 | 0.00 | 73 | 1008.8 |
| 20260505230249 | 66 | 41 | 1.7 | 1.7 | 0.00 | 0.00 | 0.00 | 73 | 1008.9 |
| 20260505225745 | 67 | 216 | 3.5 | 5.2 | 0.00 | 0.00 | 0.00 | 72 | 1008.8 |
| 20260505225243 | 67 | 349 | 3.5 | 3.5 | 0.00 | 0.00 | 0.00 | 72 | 1008.5 |
| 20260505224737 | 68 | 278 | 1.7 | 2.6 | 0.00 | 0.00 | 0.00 | 72 | 1008.8 |
| 20260505224235 | 68 | 313 | 2.6 | 2.6 | 0.00 | 0.00 | 0.00 | 72 | 1008.6 |
| 20260505223733 | 68 | 0 | 4.3 | 6.1 | 0.00 | 0.00 | 0.00 | 71 | 1008.6 |
| 20260505223229 | 68 | 342 | 3.5 | 3.5 | 0.00 | 0.00 | 0.00 | 71 | 1008.6 |
| 20260505222725 | 69 | 356 | 2.6 | 3.5 | 0.00 | 0.00 | 0.00 | 71 | 1008.6 |
| 20260505222221 | 69 | 322 | 2.6 | 2.6 | 0.00 | 0.00 | 0.00 | 70 | 1008.6 |
| 20260505221719 | 69 | 327 | 1.7 | 3.5 | 0.00 | 0.00 | 0.00 | 70 | 1008.6 |
| 20260505221215 | 69 | 329 | 2.6 | 3.5 | 0.00 | 0.00 | 0.00 | 70 | 1008.4 |
| 20260505220712 | 70 | 269 | 3.5 | 5.2 | 0.00 | 0.00 | 0.00 | 70 | 1008.3 |
| 20260505220210 | 70 | 339 | 1.7 | 2.6 | 0.00 | 0.00 | 0.00 | 71 | 1008.1 |
| 20260505215708 | 70 | 313 | 3.5 | 6.1 | 0.00 | 0.00 | 0.00 | 69 | 1008.0 |
| 20260505215205 | 70 | 190 | 1.7 | 1.7 | 0.00 | 0.00 | 0.00 | 70 | 1008.1 |
| 20260505214703 | 71 | 264 | 3.5 | 5.2 | 0.00 | 0.00 | 0.00 | 70 | 1008.0 |
| 20260505214200 | 71 | 3 | 3.5 | 5.2 | 0.00 | 0.00 | 0.00 | 70 | 1008.1 |
| 20260505213657 | 72 | 318 | 2.6 | 3.5 | 0.00 | 0.00 | 0.00 | 69 | 1007.7 |
| 20260505213154 | 73 | 304 | 2.6 | 2.6 | 0.00 | 0.00 | 0.00 | 67 | 1007.9 |
| 20260505212650 | 73 | 15 | 1.7 | 1.7 | 0.00 | 0.00 | 0.00 | 68 | 1007.6 |
| 20260505212148 | 72 | 303 | 3.5 | 6.1 | 0.00 | 0.00 | 0.00 | 68 | 1007.7 |
| 20260505211645 | 72 | 327 | 4.3 | 5.2 | 0.00 | 0.00 | 0.00 | 68 | 1007.8 |
| 20260505211142 | 72 | 36 | 1.7 | 2.6 | 0.00 | 0.00 | 0.00 | 69 | 1007.8 |
| 20260505210638 | 72 | 347 | 4.3 | 7.0 | 0.00 | 0.00 | 0.00 | 68 | 1008.0 |
| 20260505210135 | 72 | 48 | 3.5 | 3.5 | 0.00 | 0.00 | 0.00 | 69 | 1007.9 |
| 20260505205633 | 72 | 354 | 2.6 | 2.6 | 0.00 | 0.00 | 0.00 | 69 | 1008.1 |
| 20260505205131 | 73 | 348 | 3.5 | 6.1 | 0.00 | 0.00 | 0.00 | 68 | 1008.0 |
| 20260505204627 | 74 | 270 | 3.5 | 6.1 | 0.00 | 0.00 | 0.00 | 68 | 1008.0 |
| 20260505204125 | 75 | 330 | 1.7 | 2.6 | 0.00 | 0.00 | 0.00 | 67 | 1008.0 |
| 20260505203621 | 75 | 325 | 2.6 | 3.5 | 0.00 | 0.00 | 0.00 | 66 | 1008.0 |
| 20260505203119 | 76 | 305 | 4.3 | 6.1 | 0.00 | 0.00 | 0.00 | 65 | 1007.9 |
| 20260505202614 | 77 | 356 | 4.3 | 6.1 | 0.00 | 0.00 | 0.00 | 64 | 1007.7 |
| 20260505202111 | 78 | 300 | 4.3 | 7.0 | 0.00 | 0.00 | 0.00 | 64 | 1007.4 |
| 20260505201607 | 77 | 310 | 0.9 | 1.7 | 0.00 | 0.00 | 0.00 | 67 | 1007.7 |
| 20260505201105 | 77 | 333 | 3.5 | 6.1 | 0.00 | 0.00 | 0.00 | 64 | 1007.9 |
| 20260505200603 | 76 | 349 | 4.3 | 7.0 | 0.00 | 0.00 | 0.00 | 65 | 1007.7 |
| 20260505200059 | 77 | 164 | 1.7 | 1.7 | 0.00 | 0.00 | 0.00 | 65 | 1007.7 |
| 20260505195555 | 77 | 187 | 4.3 | 7.8 | 0.00 | 0.00 | 0.00 | 64 | 1007.6 |
| 20260505195053 | 78 | 201 | 0.9 | 1.7 | 0.00 | 0.00 | 0.00 | 64 | 1007.7 |
| 20260505194550 | 79 | 345 | 3.5 | 5.2 | 0.00 | 0.00 | 0.00 | 62 | 1007.7 |
| 20260505194046 | 78 | 356 | 1.7 | 2.6 | 0.00 | 0.00 | 0.00 | 63 | 1007.3 |
| 20260505193543 | 79 | 158 | 0.9 | 1.7 | 0.00 | 0.00 | 0.00 | 62 | 1007.2 |
| 20260505193040 | 80 | 224 | 0.9 | 0.9 | 0.00 | 0.00 | 0.00 | 59 | 1007.3 |
| 20260505192539 | 80 | 150 | 2.6 | 5.2 | 0.00 | 0.00 | 0.00 | 57 | 1007.2 |
| 20260505192036 | 80 | 330 | 2.6 | 6.1 | 0.00 | 0.00 | 0.00 | 57 | 1007.1 |
| 20260505191534 | 80 | 243 | 3.5 | 7.0 | 0.00 | 0.00 | 0.00 | 58 | 1007.2 |
| 20260505191032 | 80 | 208 | 3.5 | 5.2 | 0.00 | 0.00 | 0.00 | 57 | 1007.1 |
| 20260505190532 | 80 | 135 | 1.7 | 2.6 | 0.00 | 0.00 | 0.00 | 55 | 1007.2 |
| 20260505190028 | 79 | 242 | 2.6 | 5.2 | 0.00 | 0.00 | 0.00 | 51 | 1007.1 |
| 20260505185525 | 79 | 229 | 2.6 | 3.5 | 0.00 | 0.00 | 0.00 | 50 | 1007.2 |
| 20260505185021 | 79 | 243 | 1.7 | 1.7 | 0.00 | 0.00 | 0.00 | 50 | 1007.0 |
| 20260505184518 | 79 | 347 | 1.7 | 2.6 | 0.00 | 0.00 | 0.00 | 49 | 1007.0 |
| 20260505184015 | 79 | 155 | 0.9 | 0.9 | 0.00 | 0.00 | 0.00 | 46 | 1006.8 |
| 20260505183512 | 80 | 348 | 0.9 | 0.9 | 0.00 | 0.00 | 0.00 | 49 | 1006.6 |
| 20260505183009 | 79 | 329 | 1.7 | 2.6 | 0.00 | 0.00 | 0.00 | 48 | 1006.8 |
| 20260505182506 | 80 | 343 | 2.6 | 6.1 | 0.00 | 0.00 | 0.00 | 47 | 1006.4 |
| 20260505182002 | 81 | 192 | 2.6 | 2.6 | 0.00 | 0.00 | 0.00 | 46 | 1006.3 |
| 20260505181459 | 83 | 183 | 0.9 | 0.9 | 0.00 | 0.00 | 0.00 | 52 | 1006.1 |
| 20260505180956 | 84 | 165 | 3.5 | 7.0 | 0.00 | 0.00 | 0.00 | 52 | 1006.2 |
| 20260505180452 | 83 | 219 | 5.2 | 6.1 | 0.00 | 0.00 | 0.00 | 54 | 1006.3 |
| 20260505175949 | 83 | 222 | 1.7 | 2.6 | 0.00 | 0.00 | 0.00 | 55 | 1006.1 |
| 20260505175445 | 82 | 217 | 3.5 | 5.2 | 0.00 | 0.00 | 0.00 | 54 | 1006.2 |
| 20260505174942 | 83 | 203 | 2.6 | 3.5 | 0.00 | 0.00 | 0.00 | 55 | 1006.1 |
| 20260505174439 | 84 | 185 | 7.0 | 9.6 | 0.00 | 0.00 | 0.00 | 53 | 1006.1 |
| 20260505173935 | 84 | 233 | 3.5 | 5.2 | 0.00 | 0.00 | 0.00 | 55 | 1006.2 |
| 20260505173432 | 83 | 209 | 4.3 | 7.0 | 0.00 | 0.00 | 0.00 | 56 | 1006.0 |
| 20260505172929 | 83 | 286 | 7.0 | 11.3 | 0.00 | 0.00 | 0.00 | 55 | 1005.9 |
| 20260505172427 | 84 | 217 | 4.3 | 7.8 | 0.00 | 0.00 | 0.00 | 55 | 1005.9 |
| 20260505171926 | 85 | 104 | 1.7 | 2.6 | 0.00 | 0.00 | 0.00 | 56 | 1005.8 |
| 20260505171424 | 84 | 200 | 1.7 | 2.6 | 0.00 | 0.00 | 0.00 | 58 | 1006.0 |
| 20260505170920 | 82 | 345 | 1.7 | 3.5 | 0.00 | 0.00 | 0.00 | 60 | 1005.9 |
| 20260505170417 | 82 | 176 | 2.6 | 2.6 | 0.00 | 0.00 | 0.00 | 60 | 1006.0 |
| 20260505165912 | 82 | 195 | 3.5 | 5.2 | 0.00 | 0.00 | 0.00 | 57 | 1005.6 |
| 20260505165408 | 81 | 277 | 2.6 | 3.5 | 0.00 | 0.00 | 0.00 | 60 | 1005.5 |
| 20260505164903 | 81 | 188 | 5.2 | 7.0 | 0.00 | 0.00 | 0.00 | 63 | 1005.8 |
| 20260505164400 | 80 | 234 | 7.8 | 8.7 | 0.00 | 0.00 | 0.00 | 65 | 1005.9 |
| 20260505163859 | 80 | 200 | 2.6 | 3.5 | 0.00 | 0.00 | 0.00 | 68 | 1006.0 |
| 20260505163357 | 79 | 233 | 2.6 | 3.5 | 0.00 | 0.00 | 0.00 | 68 | 1005.7 |
| 20260505162855 | 79 | 227 | 3.5 | 5.2 | 0.00 | 0.00 | 0.00 | 67 | 1005.5 |
| 20260505162351 | 78 | 269 | 2.6 | 3.5 | 0.00 | 0.00 | 0.00 | 69 | 1005.6 |
| 20260505161848 | 78 | 172 | 1.7 | 1.7 | 0.00 | 0.00 | 0.00 | 70 | 1005.4 |
| 20260505161345 | 78 | 237 | 2.6 | 3.5 | 0.00 | 0.00 | 0.00 | 70 | 1005.4 |
| 20260505160843 | 78 | 226 | 8.7 | 11.3 | 0.00 | 0.00 | 0.00 | 69 | 1005.3 |
| 20260505160341 | 78 | 198 | 1.7 | 2.6 | 0.00 | 0.00 | 0.00 | 70 | 1005.2 |
| 20260505153320 | 77 | 209 | 5.2 | 7.0 | 0.00 | 0.00 | 0.00 | 71 | 1005.0 |
| 20260505152817 | 77 | 171 | 2.6 | 3.5 | 0.00 | 0.00 | 0.00 | 71 | 1004.8 |
| 20260505152314 | 76 | 249 | 5.2 | 7.0 | 0.00 | 0.00 | 0.00 | 72 | 1004.7 |
| 20260505151813 | 76 | 199 | 7.0 | 8.7 | 0.00 | 0.00 | 0.00 | 72 | 1004.9 |
| 20260505151311 | 76 | 166 | 5.2 | 6.1 | 0.00 | 0.00 | 0.00 | 73 | 1004.9 |
| 20260505150808 | 76 | 224 | 7.8 | 12.2 | 0.00 | 0.00 | 0.00 | 73 | 1004.9 |
| 20260505150305 | 76 | 182 | 2.6 | 3.5 | 0.00 | 0.00 | 0.00 | 73 | 1004.9 |
| 20260505140229 | 72 | 166 | 8.7 | 11.3 | 0.00 | 0.00 | 0.00 | 78 | 1004.6 |
| 20260505130153 | 70 | 229 | 7.0 | 9.6 | 0.00 | 0.00 | 0.00 | 79 | 1004.3 |
| 20260505124643 | 70 | 132 | 4.3 | 5.2 | 0.00 | 0.00 | 0.00 | 79 | 1004.2 |
| 20260505124139 | 70 | 220 | 7.0 | 7.8 | 0.00 | 0.00 | 0.00 | 80 | 1004.3 |
| 20260505123635 | 70 | 202 | 5.2 | 7.0 | 0.00 | 0.00 | 0.00 | 79 | 1004.2 |
| 20260505123132 | 70 | 202 | 5.2 | 11.3 | 0.00 | 0.00 | 0.00 | 79 | 1004.0 |
| 20260505122629 | 70 | 197 | 4.3 | 6.1 | 0.00 | 0.00 | 0.00 | 79 | 1004.0 |
| 20260505122126 | 70 | 188 | 4.3 | 5.2 | 0.00 | 0.00 | 0.00 | 79 | 1004.0 |
| 20260505121622 | 70 | 184 | 8.7 | 11.3 | 0.00 | 0.00 | 0.00 | 79 | 1004.0 |
| 20260505121119 | 70 | 310 | 6.1 | 8.7 | 0.00 | 0.00 | 0.00 | 80 | 1003.9 |
| 20260505120615 | 70 | 204 | 7.0 | 8.7 | 0.00 | 0.00 | 0.00 | 79 | 1003.9 |
| 20260505120111 | 70 | 170 | 6.1 | 7.8 | 0.00 | 0.00 | 0.00 | 79 | 1003.9 |
| 20260505115606 | 70 | 172 | 4.3 | 6.1 | 0.00 | 0.00 | 0.00 | 79 | 1003.8 |
| 20260505115104 | 69 | 182 | 7.0 | 9.6 | 0.00 | 0.00 | 0.00 | 80 | 1003.4 |
| 20260505114600 | 70 | 196 | 6.1 | 7.8 | 0.00 | 0.00 | 0.00 | 79 | 1003.6 |
| 20260505114057 | 70 | 236 | 6.1 | 7.8 | 0.00 | 0.00 | 0.00 | 79 | 1003.5 |
| 20260505113553 | 70 | 186 | 5.2 | 8.7 | 0.00 | 0.00 | 0.00 | 79 | 1003.4 |
| 20260505113050 | 70 | 205 | 5.2 | 8.7 | 0.00 | 0.00 | 0.00 | 79 | 1003.5 |
| 20260505112546 | 70 | 198 | 6.1 | 7.0 | 0.00 | 0.00 | 0.00 | 79 | 1003.4 |
| 20260505112045 | 70 | 191 | 7.0 | 8.7 | 0.00 | 0.00 | 0.00 | 79 | 1003.4 |
| 20260505111538 | 70 | 174 | 5.2 | 7.0 | 0.00 | 0.00 | 0.00 | 79 | 1003.6 |
| 20260505111035 | 70 | 296 | 4.3 | 6.1 | 0.00 | 0.00 | 0.00 | 79 | 1003.6 |
| 20260505110531 | 70 | 190 | 5.2 | 7.0 | 0.00 | 0.00 | 0.00 | 79 | 1003.4 |